Weather in Ozerki

Russia / Saratov Oblast     51°25′53″N   44°07′15″E
temp.,
°C
wind,
m/s
gust,
m/s
humid.,
%
clouds,
%
prec.,
mm/h
press.,
hPa
HPBL,
m
11 april, sun
sun1101:00+3n5995100 0.0 1022292
04:00+3n51196100 0.0 1023328
07:00+3nne61295100 0.0 1024360
10:00+5nne61290100 0.0 1025423
13:00+9ne6881100 0.0 1025525
16:00+13ene6772100 0.0 1024672
19:00+11nne5885100 0.0 1025288
22:00+9ne599374 0.0 1026192
12 april, mon
mon1201:00+8ne4893100 0.0 1027127
04:00+7ne4792100 0.0 1027105
07:00+8ene469092 0.0 102793
10:00+15e585898 0.0 1028312
13:00+20ese6839100 0.0 1027796
16:00+20ese7937100 0.0 10271370
19:00+17ese4947100 0.0 1028200
22:00+13ese4126475 0.0 1029205
13 april, tue
tue1301:00+10ese4126566 0.0 1029196
04:00+8ese4126699 0.0 1029188
07:00+8e4126835 0.0 1030186
10:00+14ese611465 0.0 1029453
13:00+18ese78325 0.0 10281097
16:00+19ese673098 0.0 10281571
19:00+16ese4844100 0.0 1027174
22:00+12ese485798 0.0 1027110
14 april, wed
wed1401:00+10ese4963100 0.0 1027143
04:00+9ese4117057 0.0 1026160
07:00+8e41174100 0.0 1026181
10:00+13ese6105153 0.0 1025413
13:00+17ese673734 0.0 10241050
16:00+18ese683256 0.0 10221412
19:00+16ese484594 0.0 1022159
22:00+12ese485681 0.0 1022117
15 april, thu
thu1501:00+10ese4960100 0.0 1021122
04:00+9ese4766100 0.0 102097
07:00+8ese367719 0.0 1020101
10:00+14ese465818 0.0 1019400
13:00+18ese44390 0.0 10171313
16:00+19ese33350 0.0 10161914
19:00+17e34485 0.0 101579
22:00+13ese35626 0.0 101576